Simultaneous Nadir Overpasses (SNOs) Predictions

Prediction of SNOs between NOAA-20 and NOAA-19 Satellite Orbit:

Table of predicted SNOs for the next 14.0 days since TLE Epoch: 11/27/2021
Index Date (NOAA-20) Time (NOAA-20) Lat,Lon (NOAA-20) SZA (NOAA-20 ) Date (NOAA-19) Time (NOAA-19) Lat,Lon (NOAA-19) SZA (NOAA-19 ) Distance(km) Time Diff (sec)
1 12/01/2021 05:05:47 -77.63, -99.50 79.89 12/01/2021 05:04:41 -77.62, -99.45 79.88 1.55 66
2 12/01/2021 05:56:32 77.61, 67.90 100.10 12/01/2021 05:55:35 77.63, 67.86 100.14 2.43 57
3 12/01/2021 06:47:17 -77.64,-124.91 79.87 12/01/2021 06:46:41 -77.63,-124.92 79.86 0.93 36
4 12/01/2021 07:38:02 77.62, 42.50 100.12 12/01/2021 07:37:35 77.64, 42.40 100.15 3.25 27
5 12/01/2021 08:28:47 -77.64,-150.32 79.85 12/01/2021 08:28:41 -77.64,-150.38 79.85 1.70 6
6 12/01/2021 09:19:33 77.67, 16.89 100.19 12/01/2021 09:19:35 77.64, 16.94 100.17 2.61 2
7 12/01/2021 10:10:17 -77.65,-175.72 79.83 12/01/2021 10:10:41 -77.64,-175.84 79.83 2.90 24
8 12/01/2021 11:01:03 77.67, -8.51 100.21 12/01/2021 11:01:35 77.65, -8.53 100.18 2.43 32
9 12/01/2021 11:51:47 -77.66, 158.87 79.81 12/01/2021 11:52:40 -77.69, 158.91 79.80 3.64 53
10 12/01/2021 12:42:33 77.68, -33.92 100.23 12/01/2021 12:43:35 77.66, -33.99 100.20 2.93 62
11 12/01/2021 13:33:27 -78.07, 131.42 79.26 12/01/2021 13:34:32 -78.00, 135.15 79.60 86.36 65



Historial Predications of SNOs between NOAA-20 and NOAA-19
